Zurück zum Katalog

METEOR 2-8 DEB

AktivPO
NORAD 36863·DEBRIS·🇷🇺 Russia

Gestartet Mar 25, 1982 von Plesetsk Cosmodrome

Loading…

Nächste Überflüge (nächste 24 Stunden)

TLE

AktuellSource: Space-Track

Epoche: Sep 13, 2026, 10:56 UTC

1 36863U 82025BA  26256.45613440  .00001474  00000-0  62808-3 0  9994
2 36863  82.5287 153.3911 0006056 209.8085 150.2754 14.24592366133881

Verfolge METEOR 2-8 DEB in Echtzeit mit AllMySat

Download on the App Store